SCP
0 0 0 0 0 0 0 0 0 0 0 0 0 0 0 0 0 0 0 0 0 0 0 0 0 0 0 0 0 0 0 0 0 0 0 0 0 0
0 0 0 0 0 0 0 0 0 0 0 0 0 0 0 0 0 0 0 0 0 0 0 0 0 0 0 0 0 0 0 0 0 0 0 0 0 0
0 0 0 0 0 0 0 0 0 0 0 0 0 0 0 0 0 0 0 0 0 0 0 0 0 0 0 0 0 0 0 0 0 0 0 0 0 0
0 0 0 0 0 0 0 0 0 0 0 0 0 0 0 0 0 0 0 0 0 0 0 0 0 0 0 0 0 0 0 0 0 0 0 0 0 0
0 0 0 0 0 0 0 0 0 0 0 0 0 0 0 0 0 0 0 0 0 0 0 0 0 0 0 0 0 0 0 0 0 0 0 0 0 0
0 0 0 0 0 0 0 0 0 0 0 0 0 0 0 0 0 0 0 0 0 0 0 0 0 0 0 0 0 0 0 0 0 0 0 0 0 0
0 0 0 0 0 0 0 0 0 0 0 0 0 0 0 0 0 0 0 0 0 0 0 0 0 0 0 0 0 0 0 0 0 0 0 0 0 0
0 0 0 0 0 0 0 0 0 0 0 0 0 0 0 0 0 0 0 0 0 0 0 0 0 0 0 0 0 0 0 0 0 0 0 0 0 0
0 0 0 0 0 0 0 0 0 0 0 0 0 0 0 0 0 0 0 0 0 0 0 0 0 0 0 0 0 0 0 0 0 0 0 0 0 0
0 0 0 0 0 0 0 0 0 0 0 0 0 0 0 0 0 0 0 0 0 0 0 0 0 0 0 0 0 0 0 0 0 0 0 0 0 0
0 0 0 0 0 0 0 0 0 0 0 0 0 0 0 0 0 0 0 0 0 0 0 0 0 0 0 0 0 0 0 0 0 0 0 0 0 0
0 0 0 0 0 0 0 0 0 0 0 0 0 0 0 0 0 0 0 0 0 0 0 0 0 0 0 0 0 0 0 0 0 0 0 0 0 0
0 0 0 0 0 0 0 0 0 0 0 0 0 0 0 0 0 0 0 0 0 0 0 0 0 0 0 0 0 0 0 0 0 0 0 0 0 0
0 0 0 0 0 0 0 0 0 0 0 0 0 0 0 0 0 0 0 0 0 0 0 0 0 0 0 0 0 0 0 0 0 0 0 0 0 0
0 0 0 0 0 0 0 0 0 0 0 0 0 0 0 0 0 0 0 0 0 0 0 0 0 0 0 0 0 0 0 0 0 0 0 0 0 0
0 0 0 0 0 0 0 0 0 0 0 0 0 0 0 0 0 0 0 0 0 0 0 0 0 0 0 0 0 0 0 0 0 0 0 0 0 0
0 0 0 0 0 0 0 0 0 0 0 0 0 0 0 0 0 0 0 0 0 0 0 0 0 0 0 0 0 0 0 0 0 0 0 0 0 0
0 0 0 0 0 0 0 0 0 0 0 0 0 0 0 0 0 0 0 0 0 0 0 0 0 0 0 0 0 0 0 0 0 0 0 0 0 0
0 0 0 0 0 0 0 0 0 0 0 0 0 0 0 0 0 0 0 0 0 0 0 0 0 0 0 0 0 0 0 0 0 0 0 0 0 0
0 0 0 0 0 0 0 0 0 0 0 0 0 0 0 0 0 0 0 0 0 0 0 0 0 0 0 0 0 0 0 0 0 0 0 0 0 0
0 0 0 0 0 0 0 0 0 0 0 0 0 0 0 0 0 0 0 0 0 0 0 0 0 0 0 0 0 0 0 0 0 0 0 0 0 0
0 0 0 0 0 0 0 0 0 0 0 0 0 0 0 0 0 0 0 0 0 0 0 0 0 0 0 0 0 0 0 0 0 0 0 0 0 0
0 0 0 0 0 0 0 0 0 0 0 0 0 0 0 0 0 0 0 0 0 0 0 0 0 0 0 0 0 0 0 0 0 0 0 0 0 0
Wind_Speed_500mb
91 90 87 81 79 76 80 78 74 60 69 61 55 62 57 60 57 51 48 42 37 32 26 22 19 16 14 14 15 13 14 19 23 23 21 17 15 14
97 99 98 92 90 90 86 88 90 86 76 72 78 73 65 58 63 55 52 50 44 38 31 27 24 22 21 20 19 18 17 21 25 25 24 18 13 14
99 103 105 101 100 98 95 95 97 98 93 85 77 71 69 60 58 55 54 57 49 43 37 33 29 26 26 24 25 22 22 23 28 28 28 25 25 18
103 104 108 107 108 106 102 104 103 103 104 103 97 82 77 53 53 48 55 61 53 48 42 38 34 31 30 28 30 28 25 26 30 31 32 29 27 25
105 110 112 112 113 114 110 107 105 107 112 121 106 90 84 65 57 54 59 65 57 54 46 41 38 36 34 32 34 31 29 28 32 34 37 33 30 29
106 112 113 114 115 112 113 112 114 118 120 119 106 94 84 70 62 57 70 70 58 56 46 42 41 39 36 35 35 32 30 32 37 39 42 37 34 31
97 104 108 112 110 111 112 115 122 126 108 98 94 94 86 78 79 64 71 64 56 52 46 40 41 39 37 37 35 31 31 37 40 41 43 36 33 31
92 95 96 100 104 108 112 112 128 119 110 102 114 110 98 86 79 69 70 69 61 52 42 39 38 40 39 34 33 33 34 36 38 37 38 32 29 26
87 83 83 89 90 92 99 97 101 106 95 87 119 118 95 87 82 72 68 61 59 43 35 43 41 35 38 37 35 31 31 32 33 35 34 28 24 21
74 81 89 81 78 76 77 73 81 79 83 83 108 109 77 82 67 64 50 58 54 46 40 48 46 41 35 35 31 28 27 28 23 19 17 16 21 22
42 47 54 55 56 52 52 51 54 65 69 67 89 75 68 65 59 61 60 60 56 45 31 43 43 36 32 30 27 22 20 23 17 18 20 23 22 22
49 48 40 51 41 38 40 45 50 61 64 72 75 76 71 66 68 57 57 66 59 46 28 44 41 33 22 25 23 21 26 21 21 21 20 22 23 19
54 48 42 46 46 49 49 44 49 60 76 84 86 78 71 68 59 51 53 55 52 45 33 44 39 37 32 13 18 23 24 22 21 24 24 25 22 16
53 53 49 42 36 34 41 41 49 59 78 80 80 74 70 60 52 51 55 54 51 38 37 39 35 33 32 26 21 24 23 22 22 25 25 19 18 26
36 41 41 32 28 27 33 34 48 60 78 78 72 64 55 49 50 55 54 49 39 39 39 36 33 32 30 24 19 20 19 20 22 22 19 24 27 26
26 32 35 37 22 23 28 35 42 53 65 66 63 59 57 49 49 53 53 51 43 40 34 31 31 29 26 23 19 16 18 15 17 22 22 26 27 27
28 28 30 30 21 29 36 38 41 47 53 54 51 56 51 47 54 54 46 43 41 37 33 32 29 25 23 19 15 16 18 19 22 24 26 28 25 25
21 23 25 21 23 31 35 36 34 38 41 40 37 40 49 57 55 49 42 38 32 31 31 30 28 25 20 17 15 17 17 21 23 23 26 29 21 22
16 21 22 20 24 28 29 28 29 32 34 40 46 54 55 49 48 47 41 36 33 30 30 27 23 21 19 17 15 15 16 19 21 21 25 28 30 23
25 18 14 13 15 18 19 27 29 36 39 38 38 40 44 46 44 39 36 30 30 29 27 24 20 18 16 15 15 15 16 17 20 23 23 27 29 29
20 17 12 7 9 12 16 19 23 27 29 32 34 38 39 38 38 35 31 31 30 27 23 19 18 17 16 16 12 11 14 20 22 23 26 33 36 33
20 13 8 6 2 6 11 16 20 30 34 34 36 37 38 34 32 32 32 29 26 21 18 18 15 14 13 12 11 10 11 15 19 21 24 31 36 37
33 26 19 15 14 16 21 27 33 34 32 35 37 35 34 34 32 30 26 24 21 17 13 12 11 11 11 11 9 10 12 16 18 18 18 27 29 30
Wind_Direction_500mb
251 255 255 256 254 254 253 248 246 237 236 233 231 235 246 243 233 230 234 234 238 240 243 250 257 265 275 278 282 295 306 302 305 306 307 309 307 311
253 253 256 257 256 254 251 253 249 246 244 236 239 233 226 241 232 226 232 233 236 239 242 249 256 263 269 273 279 288 292 294 295 297 299 295 287 284
256 255 255 257 259 256 253 252 248 245 243 242 235 231 222 234 231 223 234 236 236 240 244 249 254 262 268 271 276 281 285 289 287 290 289 290 288 279
256 257 258 258 259 259 257 256 253 249 246 241 233 220 213 222 223 222 241 238 235 240 242 249 254 259 265 267 274 278 284 285 281 284 285 288 286 284
260 259 260 260 260 259 259 258 258 254 248 242 227 217 207 214 216 217 235 235 232 238 239 248 255 259 262 265 270 277 281 278 281 283 285 288 288 282
263 262 262 262 261 263 265 264 263 255 248 240 227 220 207 210 217 220 231 233 227 237 240 246 253 259 261 262 268 272 271 272 278 279 280 286 288 283
267 266 265 265 267 267 267 267 262 257 241 227 221 211 203 208 216 212 232 230 228 235 238 247 255 257 258 259 263 263 267 273 274 276 280 283 281 279
269 268 267 268 267 268 268 265 263 260 251 242 219 208 205 207 217 213 231 224 223 228 235 246 259 259 258 253 259 265 269 270 272 273 277 277 275 274
272 269 268 267 270 268 264 262 260 264 260 257 229 207 206 210 215 215 227 227 226 219 225 244 256 254 257 260 261 262 262 260 264 270 272 274 274 277
272 273 274 272 272 268 265 259 256 254 251 247 234 212 217 213 209 214 223 221 216 217 232 265 257 252 255 256 258 255 256 260 253 257 265 268 282 284
293 298 276 279 280 278 273 259 253 249 242 238 220 208 202 204 205 211 213 209 208 218 241 271 249 248 251 251 248 244 226 212 235 262 264 271 274 281
304 287 280 290 277 276 271 262 249 237 219 201 193 197 193 195 205 210 215 212 212 222 231 261 240 241 246 243 234 220 199 222 260 261 263 270 274 279
288 290 288 281 280 285 278 264 255 232 208 203 203 197 193 201 201 200 205 216 216 221 258 256 233 233 224 218 192 195 221 240 240 260 267 273 277 279
279 283 281 274 274 278 268 254 241 229 212 202 199 195 196 200 187 200 208 211 221 232 245 213 223 231 227 217 212 229 221 227 243 252 263 254 271 291
298 287 285 278 277 264 256 247 235 224 210 199 196 194 194 204 194 200 202 213 226 225 209 212 225 225 217 218 208 210 223 235 249 248 236 267 282 285
317 313 310 293 274 257 235 226 225 218 208 200 196 196 199 195 186 203 215 215 212 201 201 210 214 211 207 208 210 216 231 234 231 257 273 280 292 303
306 316 303 287 256 230 219 214 206 205 203 201 198 199 198 196 204 207 210 206 202 198 198 200 202 199 200 212 221 233 251 264 270 284 291 299 308 306
322 313 299 278 241 223 215 208 204 201 199 196 194 197 203 207 204 200 199 197 193 188 195 195 193 194 201 219 235 246 246 260 276 288 292 297 306 308
349 335 315 286 256 240 235 225 211 204 202 198 196 200 206 203 196 188 185 185 180 190 187 188 191 202 212 222 236 245 257 267 278 286 294 297 304 311
21 13 350 315 273 252 227 210 197 196 193 192 192 191 187 185 179 180 179 181 189 187 187 190 199 212 227 238 239 257 266 266 279 294 294 297 305 315
24 17 10 333 275 251 227 212 199 195 188 180 171 167 166 170 169 171 177 183 184 186 191 195 206 218 232 242 249 249 267 285 295 300 304 307 313 314
29 38 59 74 143 195 187 184 174 168 159 155 153 155 156 158 162 170 177 180 179 188 195 205 215 229 238 241 246 249 249 271 286 299 305 308 307 299
44 47 58 81 104 129 142 146 153 149 144 146 145 145 148 158 170 169 167 172 183 192 205 225 239 241 243 253 265 285 291 287 282 283 294 300 301 298
Wind_Speed_850mb
91 90 87 81 79 76 80 78 74 60 69 61 55 62 57 60 57 51 48 42 37 32 26 22 19 16 14 14 15 13 14 19 23 23 21 17 15 14
97 99 98 92 90 90 86 88 90 86 76 72 78 73 65 58 63 55 52 50 44 38 31 27 24 22 21 20 19 18 17 21 25 25 24 18 13 14
99 103 105 101 100 98 95 95 97 98 93 85 77 71 69 60 58 55 54 57 49 43 37 33 29 26 26 24 25 22 22 23 28 28 28 25 25 18
103 104 108 107 108 106 102 104 103 103 104 103 97 82 77 53 53 48 55 61 53 48 42 38 34 31 30 28 30 28 25 26 30 31 32 29 27 25
105 110 112 112 113 114 110 107 105 107 112 121 106 90 84 65 57 54 59 65 57 54 46 41 38 36 34 32 34 31 29 28 32 34 37 33 30 29
106 112 113 114 115 112 113 112 114 118 120 119 106 94 84 70 62 57 70 70 58 56 46 42 41 39 36 35 35 32 30 32 37 39 42 37 34 31
97 104 108 112 110 111 112 115 122 126 108 98 94 94 86 78 79 64 71 64 56 52 46 40 41 39 37 37 35 31 31 37 40 41 43 36 33 31
92 95 96 100 104 108 112 112 128 119 110 102 114 110 98 86 79 69 70 69 61 52 42 39 38 40 39 34 33 33 34 36 38 37 38 32 29 26
87 83 83 89 90 92 99 97 101 106 95 87 119 118 95 87 82 72 68 61 59 43 35 43 41 35 38 37 35 31 31 32 33 35 34 28 24 21
74 81 89 81 78 76 77 73 81 79 83 83 108 109 77 82 67 64 50 58 54 46 40 48 46 41 35 35 31 28 27 28 23 19 17 16 21 22
42 47 54 55 56 52 52 51 54 65 69 67 89 75 68 65 59 61 60 60 56 45 31 43 43 36 32 30 27 22 20 23 17 18 20 23 22 22
49 48 40 51 41 38 40 45 50 61 64 72 75 76 71 66 68 57 57 66 59 46 28 44 41 33 22 25 23 21 26 21 21 21 20 22 23 19
54 48 42 46 46 49 49 44 49 60 76 84 86 78 71 68 59 51 53 55 52 45 33 44 39 37 32 13 18 23 24 22 21 24 24 25 22 16
53 53 49 42 36 34 41 41 49 59 78 80 80 74 70 60 52 51 55 54 51 38 37 39 35 33 32 26 21 24 23 22 22 25 25 19 18 26
36 41 41 32 28 27 33 34 48 60 78 78 72 64 55 49 50 55 54 49 39 39 39 36 33 32 30 24 19 20 19 20 22 22 19 24 27 26
26 32 35 37 22 23 28 35 42 53 65 66 63 59 57 49 49 53 53 51 43 40 34 31 31 29 26 23 19 16 18 15 17 22 22 26 27 27
28 28 30 30 21 29 36 38 41 47 53 54 51 56 51 47 54 54 46 43 41 37 33 32 29 25 23 19 15 16 18 19 22 24 26 28 25 25
21 23 25 21 23 31 35 36 34 38 41 40 37 40 49 57 55 49 42 38 32 31 31 30 28 25 20 17 15 17 17 21 23 23 26 29 21 22
16 21 22 20 24 28 29 28 29 32 34 40 46 54 55 49 48 47 41 36 33 30 30 27 23 21 19 17 15 15 16 19 21 21 25 28 30 23
25 18 14 13 15 18 19 27 29 36 39 38 38 40 44 46 44 39 36 30 30 29 27 24 20 18 16 15 15 15 16 17 20 23 23 27 29 29
20 17 12 7 9 12 16 19 23 27 29 32 34 38 39 38 38 35 31 31 30 27 23 19 18 17 16 16 12 11 14 20 22 23 26 33 36 33
20 13 8 6 2 6 11 16 20 30 34 34 36 37 38 34 32 32 32 29 26 21 18 18 15 14 13 12 11 10 11 15 19 21 24 31 36 37
33 26 19 15 14 16 21 27 33 34 32 35 37 35 34 34 32 30 26 24 21 17 13 12 11 11 11 11 9 10 12 16 18 18 18 27 29 30
Wind_Direction_850mb
251 255 255 256 254 254 253 248 246 237 236 233 231 235 246 243 233 230 234 234 238 240 243 250 257 265 275 278 282 295 306 302 305 306 307 309 307 311
253 253 256 257 256 254 251 253 249 246 244 236 239 233 226 241 232 226 232 233 236 239 242 249 256 263 269 273 279 288 292 294 295 297 299 295 287 284
256 255 255 257 259 256 253 252 248 245 243 242 235 231 222 234 231 223 234 236 236 240 244 249 254 262 268 271 276 281 285 289 287 290 289 290 288 279
256 257 258 258 259 259 257 256 253 249 246 241 233 220 213 222 223 222 241 238 235 240 242 249 254 259 265 267 274 278 284 285 281 284 285 288 286 284
260 259 260 260 260 259 259 258 258 254 248 242 227 217 207 214 216 217 235 235 232 238 239 248 255 259 262 265 270 277 281 278 281 283 285 288 288 282
263 262 262 262 261 263 265 264 263 255 248 240 227 220 207 210 217 220 231 233 227 237 240 246 253 259 261 262 268 272 271 272 278 279 280 286 288 283
267 266 265 265 267 267 267 267 262 257 241 227 221 211 203 208 216 212 232 230 228 235 238 247 255 257 258 259 263 263 267 273 274 276 280 283 281 279
269 268 267 268 267 268 268 265 263 260 251 242 219 208 205 207 217 213 231 224 223 228 235 246 259 259 258 253 259 265 269 270 272 273 277 277 275 274
272 269 268 267 270 268 264 262 260 264 260 257 229 207 206 210 215 215 227 227 226 219 225 244 256 254 257 260 261 262 262 260 264 270 272 274 274 277
272 273 274 272 272 268 265 259 256 254 251 247 234 212 217 213 209 214 223 221 216 217 232 265 257 252 255 256 258 255 256 260 253 257 265 268 282 284
293 298 276 279 280 278 273 259 253 249 242 238 220 208 202 204 205 211 213 209 208 218 241 271 249 248 251 251 248 244 226 212 235 262 264 271 274 281
304 287 280 290 277 276 271 262 249 237 219 201 193 197 193 195 205 210 215 212 212 222 231 261 240 241 246 243 234 220 199 222 260 261 263 270 274 279
288 290 288 281 280 285 278 264 255 232 208 203 203 197 193 201 201 200 205 216 216 221 258 256 233 233 224 218 192 195 221 240 240 260 267 273 277 279
279 283 281 274 274 278 268 254 241 229 212 202 199 195 196 200 187 200 208 211 221 232 245 213 223 231 227 217 212 229 221 227 243 252 263 254 271 291
298 287 285 278 277 264 256 247 235 224 210 199 196 194 194 204 194 200 202 213 226 225 209 212 225 225 217 218 208 210 223 235 249 248 236 267 282 285
317 313 310 293 274 257 235 226 225 218 208 200 196 196 199 195 186 203 215 215 212 201 201 210 214 211 207 208 210 216 231 234 231 257 273 280 292 303
306 316 303 287 256 230 219 214 206 205 203 201 198 199 198 196 204 207 210 206 202 198 198 200 202 199 200 212 221 233 251 264 270 284 291 299 308 306
322 313 299 278 241 223 215 208 204 201 199 196 194 197 203 207 204 200 199 197 193 188 195 195 193 194 201 219 235 246 246 260 276 288 292 297 306 308
349 335 315 286 256 240 235 225 211 204 202 198 196 200 206 203 196 188 185 185 180 190 187 188 191 202 212 222 236 245 257 267 278 286 294 297 304 311
21 13 350 315 273 252 227 210 197 196 193 192 192 191 187 185 179 180 179 181 189 187 187 190 199 212 227 238 239 257 266 266 279 294 294 297 305 315
24 17 10 333 275 251 227 212 199 195 188 180 171 167 166 170 169 171 177 183 184 186 191 195 206 218 232 242 249 249 267 285 295 300 304 307 313 314
29 38 59 74 143 195 187 184 174 168 159 155 153 155 156 158 162 170 177 180 179 188 195 205 215 229 238 241 246 249 249 271 286 299 305 308 307 299
44 47 58 81 104 129 142 146 153 149 144 146 145 145 148 158 170 169 167 172 183 192 205 225 239 241 243 253 265 285 291 287 282 283 294 300 301 298